Location: Piedmont
(45.8748°N, 74.1254°W)
Time: 22:06:32
(UTC+00:00)

X-37B - Pass Details

Date: 10 December 2021
Orbit: 334 x 337 km, 45.0° (Epoch: 11 January)

Event Time Altitude Azimuth Distance (km) Brightness Sun altitude
Rises 22:45:10 0° 252° (WSW) 2,100 6.2 -15.5°
Reaches altitude 10° 22:47:10 10° 248° (WSW) 1,265 4.5 -15.9°
Maximum altitude 22:49:58 58° 168° (SSE) 395 0.6 -16.3°
Enters shadow 22:50:26 48° 124° (ESE) 444 0.5 -16.4°
